FW8575 Weather Reports


time (UTC)temp
C
wind
direction
speed
KPH
gust
KPH
rain 1hr
cm
rain 24hr
cm
rain mn
cm
humidity
%
barometer
mb
20260502221005 10 289 9.7 20.9 0.00 0.00 0.00 41 1016.6
20260502220505 10 293 9.7 20.9 0.00 0.00 0.00 42 1016.6
20260502220004 10 276 8.0 22.5 0.00 0.00 0.00 42 1016.6
20260502215504 10 322 8.0 16.1 0.00 0.00 0.00 40 1016.6
20260502215006 10 292 9.7 19.3 0.00 0.00 0.00 41 1016.6
20260502214504 10 295 14.5 24.1 0.00 0.00 0.00 41 1016.7
20260502214005 10 277 11.3 19.3 0.00 0.00 0.00 41 1016.7
20260502213504 10 260 11.3 20.9 0.00 0.00 0.00 40 1016.7
20260502213005 10 292 11.3 20.9 0.00 0.00 0.00 42 1016.5
20260502212505 10 266 9.7 20.9 0.00 0.00 0.00 42 1016.6
20260502212005 10 300 9.7 16.1 0.00 0.00 0.00 41 1016.6
20260502211504 10 283 11.3 24.1 0.00 0.00 0.00 42 1016.6
20260502210504 10 283 11.3 19.3 0.00 0.00 0.00 44 1016.7
20260502210004 10 339 4.8 14.5 0.00 0.00 0.00 45 1016.7
20260502205505 9 288 11.3 16.1 0.00 0.00 0.00 46 1016.8
20260502205005 9 322 4.8 14.5 0.00 0.00 0.00 46 1016.8
20260502204506 9 288 8.0 19.3 0.00 0.00 0.00 48 1016.9
20260502204005 8 256 11.3 19.3 0.00 0.00 0.00 47 1016.9
20260502203504 8 295 9.7 19.3 0.00 0.00 0.00 45 1017.0
20260502203005 9 259 9.7 19.3 0.00 0.00 0.00 46 1016.9
20260502202504 9 289 14.5 22.5 0.00 0.00 0.00 46 1017.0
20260502202005 9 282 11.3 32.2 0.00 0.00 0.00 47 1017.1
20260502201504 8 274 9.7 19.3 0.00 0.00 0.00 47 1017.2
20260502201005 8 316 8.0 19.3 0.00 0.00 0.00 47 1017.2
20260502200504 8 341 4.8 14.5 0.00 0.00 0.00 46 1017.3
20260502195504 8 5 4.8 12.9 0.00 0.00 0.00 47 1017.4
20260502195005 8 350 8.0 11.3 0.00 0.00 0.00 48 1017.4
20260502194504 8 287 8.0 16.1 0.00 0.00 0.00 47 1017.4
20260502194005 8 316 3.2 11.3 0.00 0.00 0.00 49 1017.5
20260502193504 8 302 11.3 19.3 0.00 0.00 0.00 48 1017.6
20260502193005 8 281 8.0 16.1 0.00 0.00 0.00 48 1017.6
20260502192504 8 325 9.7 16.1 0.00 0.00 0.00 49 1017.7
20260502192005 8 309 9.7 24.1 0.00 0.00 0.00 47 1017.8
20260502191504 8 287 4.8 20.9 0.00 0.00 0.00 47 1017.8
20260502190504 8 315 11.3 19.3 0.00 0.00 0.00 48 1017.9
20260502190004 8 328 4.8 14.5 0.00 0.00 0.00 48 1017.9
20260502185504 8 275 8.0 11.3 0.00 0.00 0.00 48 1017.9
20260502185004 8 268 8.0 20.9 0.00 0.00 0.00 48 1017.9
20260502184504 8 297 11.3 19.3 0.00 0.00 0.00 45 1017.9
20260502183503 7 270 9.7 14.5 0.00 0.00 0.00 48 1018.0
20260502183004 7 329 6.4 16.1 0.00 0.00 0.00 50 1018.1
20260502182504 7 295 6.4 16.1 0.00 0.00 0.00 50 1018.1
20260502182004 7 297 11.3 20.9 0.00 0.00 0.00 47 1018.2
20260502181504 7 278 12.9 24.1 0.00 0.00 0.00 48 1018.3
20260502180503 7 319 3.2 16.1 0.00 0.00 0.00 48 1018.3
20260502164004 7 291 8.0 16.1 0.00 0.00 0.00 52 1018.8
20260502163504 6 296 8.0 19.3 0.00 0.00 0.00 53 1018.9
20260502163007 7 303 9.7 19.3 0.00 0.00 0.00 52 1018.9
20260502162506 7 328 8.0 19.3 0.00 0.00 0.00 52 1018.9
20260502162007 7 312 3.2 16.1 0.00 0.00 0.00 54 1018.9
20260502161506 6 301 11.3 19.3 0.00 0.00 0.00 53 1019.0
20260502161007 6 284 9.7 19.3 0.00 0.00 0.00 54 1019.0
20260502160506 6 266 4.8 19.3 0.00 0.00 0.00 54 1019.0
20260502152007 6 255 6.4 12.9 0.00 0.00 0.00 59 1019.0
20260502151007 6 277 11.3 19.3 0.00 0.00 0.00 55 1019.0
20260502150506 6 7 9.7 16.1 0.00 0.00 0.00 54 1019.0
20260502123506 2 295 1.6 11.3 0.00 0.00 0.00 77 1018.6
20260502123006 2 300 4.8 12.9 0.00 0.00 0.00 78 1018.7
20260502122506 2 311 9.7 16.1 0.00 0.00 0.00 78 1018.7
20260502122006 2 302 4.8 12.9 0.00 0.00 0.00 79 1018.7
20260502120506 1 301 4.8 9.7 0.00 0.00 0.00 82 1018.7
20260502115507 1 301 3.2 9.7 0.00 0.00 0.00 83 1018.6
20260502115007 0 300 4.8 14.5 0.00 0.00 0.00 83 1018.5
20260502113506 0 309 3.2 8.0 0.00 0.00 0.00 85 1018.5
20260502112506 0 306 1.6 8.0 0.00 0.00 0.00 85 1018.4
20260502111506 0 298 3.2 8.0 0.00 0.00 0.00 85 1018.4
20260502110505 0 315 1.6 4.8 0.00 0.00 0.00 85 1018.3
20260502110006 0 289 0.0 4.8 0.00 0.00 0.00 85 1018.2
20260502105506 0 286 3.2 9.7 0.00 0.00 0.00 85 1018.2
20260502104506 0 294 0.0 3.2 0.00 0.00 0.00 85 1018.0
20260502104007 0 294 0.0 0.0 0.00 0.00 0.00 85 1018.0
20260502103506 0 294 0.0 0.0 0.00 0.00 0.00 85 1018.0
20260502103007 0 294 0.0 3.2 0.00 0.00 0.00 85 1017.9
20260502102505 -1 294 1.6 4.8 0.00 0.03 0.00 85 1017.9
20260502102006 -1 284 0.0 3.2 0.00 0.03 0.00 85 1017.9
20260502101506 -1 284 0.0 1.6 0.00 0.03 0.00 85 1017.9
20260502100506 -1 284 0.0 0.0 0.00 0.03 0.00 85 1017.9
20260502091007 0 283 0.0 0.0 0.00 0.03 0.00 82 1017.8
20260502071505 0 280 0.0 1.6 0.00 0.30 0.00 77 1017.6
20260502071006 0 280 0.0 0.0 0.00 0.30 0.00 77 1017.6
20260502070505 0 280 0.0 1.6 0.00 0.36 0.00 76 1017.6
20260502065505 0 280 1.6 4.8 0.00 0.38 0.00 76 1017.6
20260502065006 0 279 0.0 0.0 0.00 0.38 0.00 76 1017.6
20260502064505 0 279 0.0 3.2 0.00 0.38 0.00 76 1017.7
20260502064006 0 279 0.0 3.2 0.00 0.38 0.00 76 1017.7
20260502063505 0 278 1.6 8.0 0.00 0.38 0.00 75 1017.7